TimeEST,TemperatureF,Dew PointF,Humidity,Sea Level PressureIn,VisibilityMPH,Wind Direction,Wind SpeedMPH,Gust SpeedMPH,PrecipitationIn,Events,Conditions,WindDirDegrees,DateUTC
12:05 AM,32.0,32.0,100,30.13,1.5,Calm,Calm,-,0.00,,Unknown,0,2013-12-14 05:05:00
12:25 AM,32.0,32.0,100,30.13,2.5,Calm,Calm,-,0.01,,Clear,0,2013-12-14 05:25:00
12:45 AM,32.0,32.0,100,30.12,2.5,Calm,Calm,-,0.01,,Clear,0,2013-12-14 05:45:00
1:05 AM,32.0,32.0,100,30.12,1.2,Calm,Calm,-,0.00,,Unknown,0,2013-12-14 06:05:00
1:25 AM,32.0,32.0,100,30.11,2.0,Calm,Calm,-,0.01,,Clear,0,2013-12-14 06:25:00
1:45 AM,32.0,32.0,100,30.12,1.8,Calm,Calm,-,0.02,,Mostly Cloudy,0,2013-12-14 06:45:00
2:05 AM,32.0,32.0,100,30.12,1.0,Calm,Calm,-,0.00,,Overcast,0,2013-12-14 07:05:00
2:25 AM,32.0,32.0,100,30.12,2.0,NE,3.5,-,0.00,,Mostly Cloudy,50,2013-12-14 07:25:00
2:45 AM,32.0,32.0,100,30.11,3.0,Calm,Calm,-,0.01,,Mostly Cloudy,0,2013-12-14 07:45:00
3:05 AM,32.0,32.0,100,30.10,6.0,East,3.5,-,0.00,,Overcast,80,2013-12-14 08:05:00
3:25 AM,32.0,32.0,100,30.09,2.5,East,4.6,-,0.00,,Overcast,90,2013-12-14 08:25:00
3:45 AM,32.0,32.0,100,30.09,2.5,East,3.5,-,0.01,,Overcast,100,2013-12-14 08:45:00
4:05 AM,32.0,32.0,100,30.07,1.5,ESE,4.6,-,0.00,,Overcast,110,2013-12-14 09:05:00
4:25 AM,32.0,32.0,100,30.06,2.0,East,5.8,-,0.01,,Overcast,100,2013-12-14 09:25:00
4:45 AM,32.0,32.0,100,30.05,4.0,East,4.6,-,0.01,,Overcast,90,2013-12-14 09:45:00
5:05 AM,32.0,32.0,100,30.05,4.0,ESE,5.8,-,0.00,,Overcast,110,2013-12-14 10:05:00
5:25 AM,32.0,32.0,100,30.05,2.5,Calm,Calm,-,0.01,,Overcast,0,2013-12-14 10:25:00
5:45 AM,32.0,32.0,100,30.04,2.0,ESE,4.6,-,0.02,,Overcast,120,2013-12-14 10:45:00
6:05 AM,32.0,32.0,100,30.03,2.5,ESE,6.9,-,0.00,,Overcast,120,2013-12-14 11:05:00
6:25 AM,32.0,32.0,100,30.02,3.0,ESE,8.1,-,0.00,,Overcast,120,2013-12-14 11:25:00
6:45 AM,32.0,32.0,100,30.01,3.0,ESE,8.1,-,0.00,,Overcast,120,2013-12-14 11:45:00
7:05 AM,32.0,32.0,100,30.01,4.0,ESE,8.1,-,0.00,,Mostly Cloudy,110,2013-12-14 12:05:00
7:25 AM,32.0,32.0,100,30.00,5.0,ESE,8.1,-,0.00,,Mostly Cloudy,110,2013-12-14 12:25:00
7:45 AM,32.0,32.0,100,29.99,4.0,ESE,9.2,-,0.00,,Mostly Cloudy,110,2013-12-14 12:45:00
8:05 AM,32.0,32.0,100,29.98,2.5,ESE,8.1,-,0.00,,Mostly Cloudy,110,2013-12-14 13:05:00
8:25 AM,32.0,32.0,100,29.98,5.0,ESE,11.5,16.1,0.00,,Overcast,120,2013-12-14 13:25:00
8:45 AM,32.0,32.0,100,29.97,1.2,ESE,10.4,-,0.00,,Overcast,120,2013-12-14 13:45:00
9:05 AM,32.0,32.0,100,29.95,1.0,ESE,9.2,-,0.00,,Overcast,120,2013-12-14 14:05:00
9:25 AM,32.0,32.0,100,29.95,1.8,ESE,9.2,-,0.00,,Mostly Cloudy,120,2013-12-14 14:25:00
9:45 AM,32.0,32.0,100,29.95,1.5,ESE,9.2,-,0.01,,Scattered Clouds,120,2013-12-14 14:45:00
10:05 AM,32.0,32.0,100,29.93,0.8,ESE,9.2,-,0.01,,Mostly Cloudy,110,2013-12-14 15:05:00
10:25 AM,33.8,33.8,100,29.93,1.2,SE,10.4,-,0.02,,Mostly Cloudy,130,2013-12-14 15:25:00
10:45 AM,33.8,33.8,100,29.91,1.0,SE,10.4,17.3,0.03,,Overcast,130,2013-12-14 15:45:00
11:05 AM,33.8,33.8,100,29.88,1.2,ESE,10.4,-,0.00,,Overcast,120,2013-12-14 16:05:00
11:25 AM,33.8,33.8,100,29.86,1.2,ESE,10.4,-,0.01,,Mostly Cloudy,120,2013-12-14 16:25:00
11:45 AM,33.8,33.8,100,29.84,2.5,ESE,6.9,18.4,0.02,,Mostly Cloudy,120,2013-12-14 16:45:00
12:05 PM,33.8,33.8,100,29.83,2.5,SE,6.9,-,0.00,,Mostly Cloudy,130,2013-12-14 17:05:00
12:25 PM,33.8,33.8,100,29.82,1.5,ESE,8.1,-,0.02,,Overcast,120,2013-12-14 17:25:00
12:45 PM,33.8,33.8,100,29.79,4.0,ESE,9.2,-,0.02,,Mostly Cloudy,120,2013-12-14 17:45:00
1:05 PM,33.8,33.8,100,29.77,6.0,ESE,6.9,-,0.00,,Mostly Cloudy,120,2013-12-14 18:05:00
1:25 PM,33.8,33.8,100,29.75,5.0,ESE,8.1,-,0.02,,Mostly Cloudy,110,2013-12-14 18:25:00
1:45 PM,33.8,33.8,100,29.72,5.0,ESE,9.2,-,0.02,,Overcast,110,2013-12-14 18:45:00
2:05 PM,33.8,33.8,100,29.71,4.0,ESE,10.4,16.1,0.00,,Mostly Cloudy,110,2013-12-14 19:05:00
2:25 PM,33.8,33.8,100,29.70,3.0,ESE,8.1,-,0.01,,Overcast,110,2013-12-14 19:25:00
2:45 PM,33.8,33.8,100,29.70,4.0,ESE,6.9,-,0.03,,Overcast,110,2013-12-14 19:45:00
3:05 PM,33.8,33.8,100,29.70,2.0,SE,6.9,-,0.00,,Overcast,130,2013-12-14 20:05:00
3:25 PM,33.8,33.8,100,29.70,2.5,Calm,Calm,-,0.03,,Overcast,0,2013-12-14 20:25:00
3:45 PM,33.8,33.8,100,29.70,3.0,SE,4.6,-,0.04,,Overcast,130,2013-12-14 20:45:00
4:05 PM,33.8,33.8,100,29.69,3.0,SE,5.8,-,0.00,,Overcast,130,2013-12-14 21:05:00
4:25 PM,33.8,33.8,100,29.68,5.0,ESE,5.8,-,0.00,,Overcast,120,2013-12-14 21:25:00
4:45 PM,33.8,33.8,100,29.68,2.5,SE,4.6,-,0.00,,Overcast,130,2013-12-14 21:45:00
5:05 PM,33.8,33.8,100,29.68,3.0,SSE,3.5,-,0.00,,Overcast,150,2013-12-14 22:05:00
5:25 PM,33.8,33.8,100,29.68,3.0,Calm,Calm,-,0.00,,Overcast,0,2013-12-14 22:25:00
5:45 PM,33.8,33.8,100,29.68,1.0,NNW,3.5,-,0.01,,Overcast,340,2013-12-14 22:45:00
6:05 PM,33.8,33.8,100,29.68,1.2,North,5.8,-,0.00,,Overcast,350,2013-12-14 23:05:00
6:25 PM,32.0,32.0,100,29.67,0.5,North,4.6,-,0.00,,Overcast,10,2013-12-14 23:25:00
6:45 PM,32.0,32.0,100,29.68,1.5,NNW,5.8,-,0.00,,Overcast,330,2013-12-14 23:45:00
7:05 PM,32.0,32.0,100,29.68,0.8,NNW,6.9,-,0.00,,Overcast,330,2013-12-15 00:05:00
7:25 PM,32.0,32.0,100,29.69,0.5,NNW,6.9,-,0.00,,Overcast,340,2013-12-15 00:25:00
7:45 PM,32.0,32.0,100,29.69,1.0,North,6.9,-,0.00,,Overcast,350,2013-12-15 00:45:00
8:05 PM,32.0,32.0,100,29.69,1.2,North,-9999.0,-,0.00,,Overcast,0,2013-12-15 01:05:00
8:25 PM,32.0,32.0,100,29.70,1.5,Calm,Calm,-,0.00,,Overcast,0,2013-12-15 01:25:00
8:45 PM,32.0,32.0,100,29.70,1.2,Calm,Calm,-,0.00,,Overcast,0,2013-12-15 01:45:00
9:05 PM,-9999,-9999,N/A,29.71,1.0,Calm,Calm,-,0.00,,Overcast,0,2013-12-15 02:05:00
9:25 PM,30.2,30.2,100,29.71,1.5,Calm,Calm,-,0.00,,Overcast,0,2013-12-15 02:25:00
9:45 PM,28.4,28.4,100,29.73,3.0,Calm,Calm,-,0.00,,Overcast,0,2013-12-15 02:45:00
10:05 PM,28.4,28.4,100,29.73,5.0,Calm,Calm,-,0.00,,Overcast,0,2013-12-15 03:05:00
10:25 PM,-9999,-9999,N/A,29.74,5.0,Calm,Calm,-,0.00,,Overcast,0,2013-12-15 03:25:00
10:45 PM,26.6,26.6,100,29.76,3.0,Calm,Calm,-,0.00,,Overcast,0,2013-12-15 03:45:00
11:05 PM,26.6,26.6,100,29.76,4.0,Calm,Calm,-,0.00,,Overcast,0,2013-12-15 04:05:00
11:25 PM,24.8,24.8,100,29.77,3.0,Calm,Calm,-,0.00,,Overcast,0,2013-12-15 04:25:00
11:45 PM,23.0,23.0,100,29.78,2.5,Calm,Calm,-,0.00,,Mostly Cloudy,0,2013-12-15 04:45:00